Total_Precipitation_Accumulation
0.64 0.99 1.30 1.15 1.14 1.20 1.05 1.09 1.15 1.15 1.00 1.12 1.19 1.13 1.20 1.17 1.13 0.98 0.89 0.82 0.83 0.81 0.84 0.79 0.79 0.89 0.87 0.78 0.75 0.85 1.06 1.26 1.41 1.56 1.75 1.93 2.05 2.10 2.03 1.96 1.97 1.86 1.66 1.74
0.86 1.00 0.83 0.76 0.83 0.93 0.96 1.04 1.10 1.04 0.88 0.98 1.04 1.06 1.12 1.04 0.97 0.82 0.75 0.72 0.69 0.67 0.70 0.71 0.64 0.66 0.67 0.67 0.70 0.79 0.97 1.26 1.47 1.65 1.88 2.08 2.43 2.57 2.50 2.46 2.32 2.21 2.09 2.11
0.82 0.73 0.60 0.72 0.85 0.96 0.95 0.92 0.95 0.97 1.00 1.00 0.99 1.16 1.22 1.11 0.94 0.78 0.66 0.60 0.58 0.54 0.58 0.61 0.57 0.55 0.51 0.52 0.60 0.73 0.85 1.07 1.40 1.73 2.01 2.23 2.46 2.73 2.80 2.66 2.57 2.49 2.50 2.52
0.67 0.56 0.54 0.66 0.72 0.81 1.05 0.69 0.65 0.73 0.96 1.23 1.01 1.40 1.20 1.05 0.95 0.77 0.68 0.63 0.57 0.57 0.58 0.57 0.54 0.54 0.51 0.55 0.63 0.76 0.85 1.00 1.21 1.47 1.86 2.23 2.51 2.85 2.87 2.72 2.69 2.69 2.69 2.68
0.62 0.55 0.57 0.67 0.60 0.62 0.78 0.53 0.57 0.70 0.79 0.88 0.76 1.06 1.09 0.89 0.96 0.86 0.77 0.73 0.66 0.59 0.59 0.56 0.55 0.54 0.57 0.60 0.66 0.81 0.92 1.05 1.22 1.47 1.80 2.17 2.44 2.68 2.85 2.80 2.65 2.57 2.61 2.49
0.56 0.48 0.49 0.51 0.46 0.50 0.58 0.60 0.65 0.69 0.81 0.98 0.61 0.80 1.04 0.93 0.89 0.87 0.82 0.80 0.70 0.55 0.58 0.61 0.64 0.66 0.64 0.67 0.77 0.91 1.03 1.19 1.34 1.47 1.60 1.77 1.99 2.31 2.47 2.61 2.61 2.59 2.60 2.43
0.57 0.49 0.38 0.37 0.54 0.56 0.60 0.90 1.23 1.19 1.16 1.00 0.50 0.70 0.95 0.79 0.67 0.68 0.67 0.69 0.69 0.65 0.67 0.74 0.81 0.81 0.78 0.78 0.93 1.05 1.15 1.22 1.28 1.27 1.34 1.46 1.65 1.90 2.03 2.14 2.29 2.35 2.42 2.40
0.59 0.56 0.40 0.34 0.43 0.58 0.57 0.76 1.24 1.32 1.13 0.92 0.72 0.96 1.02 0.72 0.59 0.57 0.58 0.59 0.64 0.73 0.81 0.93 1.04 1.07 1.00 0.99 1.03 1.07 1.15 1.13 1.13 1.18 1.25 1.33 1.44 1.60 1.67 1.75 1.89 1.98 1.97 1.96
0.56 0.51 0.30 0.27 0.27 0.38 0.52 0.49 0.54 0.80 0.78 0.91 0.89 1.00 0.96 0.68 0.56 0.56 0.61 0.62 0.66 0.82 0.95 1.10 1.26 1.29 1.21 1.15 1.12 1.15 1.23 1.18 1.10 1.16 1.30 1.35 1.39 1.39 1.39 1.45 1.42 1.44 1.52 1.55
0.45 0.50 0.33 0.25 0.29 0.31 0.36 0.42 0.57 0.93 1.19 1.23 1.03 1.05 1.12 0.84 0.63 0.61 0.70 0.82 0.91 1.06 1.15 1.28 1.39 1.39 1.34 1.38 1.37 1.22 1.21 1.25 1.19 1.31 1.38 1.35 1.31 1.28 1.28 1.28 1.29 1.29 1.38 1.47
0.40 0.54 0.42 0.32 0.34 0.35 0.34 0.42 0.62 0.92 1.01 1.34 1.51 1.43 0.99 0.83 0.76 0.74 0.81 1.09 1.18 1.25 1.34 1.40 1.46 1.43 1.32 1.32 1.31 1.29 1.25 1.24 1.26 1.31 1.36 1.28 1.28 1.29 1.28 1.24 1.27 1.35 1.42 1.51
0.45 0.61 0.53 0.31 0.27 0.30 0.44 0.58 0.78 1.25 1.24 1.14 1.54 1.61 1.00 0.84 0.85 0.85 0.87 0.93 1.02 1.23 1.33 1.35 1.45 1.41 1.30 1.28 1.17 1.21 1.29 1.30 1.37 1.40 1.33 1.28 1.37 1.41 1.45 1.43 1.39 1.40 1.40 1.38
0.60 0.80 0.83 0.64 0.57 0.52 0.57 0.65 0.80 1.05 1.28 1.30 1.47 1.49 1.05 0.80 0.76 0.81 0.89 0.90 0.96 1.07 1.09 1.05 1.16 1.27 1.24 1.19 1.10 1.19 1.25 1.30 1.33 1.41 1.43 1.33 1.25 1.31 1.38 1.43 1.41 1.38 1.35 1.34
0.61 0.78 0.91 0.91 0.77 0.68 0.62 0.56 0.64 0.93 1.24 1.25 1.28 1.23 0.94 0.78 0.75 0.78 0.82 0.88 0.87 0.85 0.85 0.80 0.81 0.94 0.95 0.96 1.02 1.09 1.22 1.37 1.39 1.42 1.40 1.39 1.35 1.40 1.36 1.32 1.30 1.28 1.26 1.21
0.53 0.56 0.50 0.41 0.36 0.41 0.48 0.50 0.59 0.74 0.91 1.16 1.05 0.85 0.71 0.67 0.64 0.66 0.72 0.66 0.63 0.62 0.65 0.66 0.66 0.71 0.73 0.76 0.84 0.91 1.01 1.22 1.35 1.45 1.46 1.39 1.35 1.33 1.33 1.29 1.19 1.16 1.07 1.05
0.53 0.48 0.35 0.27 0.25 0.31 0.42 0.52 0.67 0.73 0.79 0.80 0.71 0.68 0.52 0.49 0.45 0.45 0.52 0.54 0.56 0.53 0.48 0.50 0.55 0.58 0.63 0.65 0.72 0.74 0.86 1.03 1.16 1.23 1.29 1.39 1.37 1.23 1.17 1.14 1.13 1.06 0.98 0.96
0.39 0.38 0.36 0.30 0.23 0.35 0.58 0.62 0.69 0.70 0.64 0.56 0.53 0.47 0.35 0.33 0.30 0.32 0.38 0.43 0.51 0.50 0.41 0.39 0.41 0.47 0.54 0.62 0.64 0.69 0.81 0.96 1.02 1.10 1.15 1.23 1.24 1.13 1.07 0.99 0.94 0.93 0.90 0.93
0.37 0.40 0.49 0.40 0.34 0.61 0.79 0.60 0.54 0.60 0.50 0.35 0.32 0.31 0.29 0.25 0.23 0.21 0.22 0.25 0.29 0.33 0.33 0.37 0.35 0.35 0.39 0.47 0.59 0.74 0.79 0.81 0.85 0.95 1.00 1.00 1.02 1.00 0.97 0.87 0.85 0.87 0.90 0.95
0.36 0.47 0.59 0.55 0.54 0.65 0.70 0.47 0.44 0.52 0.50 0.29 0.23 0.22 0.19 0.18 0.17 0.15 0.15 0.16 0.18 0.20 0.24 0.27 0.27 0.27 0.28 0.31 0.35 0.43 0.51 0.57 0.61 0.73 0.81 0.85 0.88 0.88 0.87 0.83 0.93 0.97 0.95 0.96
0.49 0.57 0.64 0.62 0.72 0.80 0.54 0.24 0.23 0.39 0.60 0.28 0.18 0.16 0.14 0.15 0.19 0.16 0.15 0.17 0.16 0.14 0.14 0.18 0.21 0.21 0.20 0.21 0.23 0.27 0.35 0.42 0.47 0.55 0.65 0.72 0.79 0.83 0.90 1.04 1.15 1.18 1.12 1.01
0.43 0.50 0.60 0.67 0.88 0.81 0.47 0.23 0.25 0.47 0.62 0.32 0.18 0.16 0.17 0.18 0.18 0.16 0.16 0.17 0.17 0.14 0.13 0.15 0.18 0.18 0.19 0.20 0.20 0.24 0.30 0.33 0.38 0.41 0.48 0.60 0.74 0.84 0.98 1.14 1.18 1.16 1.10 0.97
0.46 0.58 0.69 0.83 1.05 1.05 0.53 0.32 0.40 0.39 0.27 0.22 0.16 0.15 0.15 0.16 0.17 0.18 0.19 0.18 0.18 0.19 0.17 0.16 0.16 0.15 0.18 0.20 0.20 0.23 0.32 0.35 0.42 0.45 0.46 0.52 0.64 0.78 0.96 1.11 1.12 1.12 1.11 1.02
0.40 0.67 0.92 0.93 0.92 0.70 0.44 0.34 0.27 0.22 0.22 0.16 0.14 0.15 0.16 0.16 0.16 0.17 0.19 0.20 0.19 0.20 0.21 0.19 0.17 0.16 0.17 0.19 0.22 0.25 0.29 0.34 0.38 0.43 0.41 0.43 0.52 0.66 0.83 0.94 0.96 1.00 1.03 1.00
0.25 0.34 0.54 0.53 0.39 0.29 0.27 0.23 0.17 0.13 0.14 0.12 0.11 0.13 0.18 0.22 0.22 0.17 0.18 0.21 0.23 0.22 0.21 0.19 0.18 0.18 0.18 0.19 0.22 0.28 0.33 0.35 0.35 0.37 0.40 0.41 0.42 0.46 0.55 0.63 0.69 0.78 0.83 0.84
0.23 0.30 0.41 0.41 0.28 0.21 0.21 0.19 0.15 0.12 0.12 0.11 0.11 0.11 0.13 0.18 0.20 0.16 0.18 0.19 0.22 0.23 0.24 0.22 0.21 0.23 0.22 0.22 0.23 0.27 0.32 0.37 0.38 0.39 0.42 0.44 0.45 0.48 0.50 0.52 0.55 0.60 0.64 0.75
0.16 0.25 0.36 0.39 0.28 0.22 0.18 0.17 0.16 0.14 0.12 0.11 0.12 0.13 0.16 0.18 0.20 0.20 0.19 0.20 0.19 0.22 0.25 0.26 0.26 0.28 0.26 0.26 0.27 0.28 0.30 0.34 0.36 0.38 0.39 0.38 0.39 0.43 0.44 0.47 0.51 0.56 0.56 0.64